Year,Month,Day,Hour,Minute,Value (Times are PST for temperature in C)
2011,05,28,00,00,7.20
2011,05,28,00,01,7.20
2011,05,28,00,02,7.20
2011,05,28,00,03,7.20
2011,05,28,00,04,7.20
2011,05,28,00,05,7.20
2011,05,28,00,06,7.20
2011,05,28,00,07,7.20
2011,05,28,00,08,7.20
2011,05,28,00,09,7.30
2011,05,28,00,10,7.30
2011,05,28,00,11,7.30
2011,05,28,00,12,7.30
2011,05,28,00,13,7.30
2011,05,28,00,14,7.30
2011,05,28,00,15,7.30
2011,05,28,00,16,7.30
2011,05,28,00,17,7.30
2011,05,28,00,18,7.30
2011,05,28,00,19,7.30
2011,05,28,00,20,7.30
2011,05,28,00,21,7.30
2011,05,28,00,22,7.30
2011,05,28,00,23,7.30
2011,05,28,00,24,7.30
2011,05,28,00,25,7.30
2011,05,28,00,26,7.30
2011,05,28,00,27,7.30
2011,05,28,00,28,7.30
2011,05,28,00,29,7.30
2011,05,28,00,30,7.30
2011,05,28,00,31,7.30
2011,05,28,00,32,7.30
2011,05,28,00,33,7.30
2011,05,28,00,34,7.30
2011,05,28,00,35,7.30
2011,05,28,00,36,7.30
2011,05,28,00,37,7.30
2011,05,28,00,38,7.30
2011,05,28,00,39,7.30
2011,05,28,00,40,7.30
2011,05,28,00,41,7.30
2011,05,28,00,42,7.30
2011,05,28,00,43,7.30
2011,05,28,00,44,7.30
2011,05,28,00,45,7.30
2011,05,28,00,46,7.30
2011,05,28,00,47,7.30
2011,05,28,00,48,7.30
2011,05,28,00,49,7.30
2011,05,28,00,50,7.30
2011,05,28,00,51,7.30
2011,05,28,00,52,7.30
2011,05,28,00,53,7.30
2011,05,28,00,54,7.30
2011,05,28,00,55,7.20
2011,05,28,00,56,7.20
2011,05,28,00,57,7.20
2011,05,28,00,58,7.20
2011,05,28,00,59,7.20
2011,05,28,01,00,7.20
2011,05,28,01,01,7.20
2011,05,28,01,02,7.20
2011,05,28,01,03,7.20
2011,05,28,01,04,7.20
2011,05,28,01,05,7.20
2011,05,28,01,06,7.20
2011,05,28,01,07,7.20
2011,05,28,01,08,7.20
2011,05,28,01,09,7.20
2011,05,28,01,10,7.10
2011,05,28,01,11,7.10
2011,05,28,01,12,7.10
2011,05,28,01,13,7.10
2011,05,28,01,14,7.10
2011,05,28,01,15,7.10
2011,05,28,01,16,7.10
2011,05,28,01,17,7.20
2011,05,28,01,18,7.20
2011,05,28,01,19,7.20
2011,05,28,01,20,7.20
2011,05,28,01,21,7.20
2011,05,28,01,22,7.20
2011,05,28,01,23,7.20
2011,05,28,01,24,7.20
2011,05,28,01,25,7.20
2011,05,28,01,26,7.20
2011,05,28,01,27,7.20
2011,05,28,01,28,7.20
2011,05,28,01,29,7.20
2011,05,28,01,30,7.20
2011,05,28,01,31,7.20
2011,05,28,01,32,7.20
2011,05,28,01,33,7.20
2011,05,28,01,34,7.20
2011,05,28,01,35,7.20
2011,05,28,01,36,7.10
2011,05,28,01,37,7.10
2011,05,28,01,38,7.10
2011,05,28,01,39,7.10
2011,05,28,01,40,7.10
2011,05,28,01,41,7.10
2011,05,28,01,42,7.10
2011,05,28,01,43,7.10
2011,05,28,01,44,7.10
2011,05,28,01,45,7.10
2011,05,28,01,46,7.10
2011,05,28,01,47,7.10
2011,05,28,01,48,7.10
2011,05,28,01,49,7.10
2011,05,28,01,50,7.10
2011,05,28,01,51,7.10
2011,05,28,01,52,7.10
2011,05,28,01,53,7.20
2011,05,28,01,54,7.20
2011,05,28,01,55,7.20
2011,05,28,01,56,7.20
2011,05,28,01,57,7.20
2011,05,28,01,58,7.20
2011,05,28,01,59,7.20
2011,05,28,02,00,7.20
2011,05,28,02,01,7.20
2011,05,28,02,02,7.20
2011,05,28,02,03,7.20
2011,05,28,02,04,7.20
2011,05,28,02,05,7.20
2011,05,28,02,06,7.20
2011,05,28,02,07,7.20
2011,05,28,02,08,7.20
2011,05,28,02,09,7.20
2011,05,28,02,10,7.20
2011,05,28,02,11,7.20
2011,05,28,02,12,7.20
2011,05,28,02,13,7.20
2011,05,28,02,14,7.20
2011,05,28,02,15,7.10
2011,05,28,02,16,7.10
2011,05,28,02,17,7.10
2011,05,28,02,18,7.10
2011,05,28,02,19,7.10
2011,05,28,02,20,7.10
2011,05,28,02,21,7.10
2011,05,28,02,22,7.10
2011,05,28,02,23,7.10
2011,05,28,02,24,7.10
2011,05,28,02,25,7.10
2011,05,28,02,26,7.10
2011,05,28,02,27,7.10
2011,05,28,02,28,7.20
2011,05,28,02,29,7.20
2011,05,28,02,30,7.20
2011,05,28,02,31,7.20
2011,05,28,02,32,7.20
2011,05,28,02,33,7.20
2011,05,28,02,34,7.20
2011,05,28,02,35,7.20
2011,05,28,02,36,7.20
2011,05,28,02,37,7.10
2011,05,28,02,38,7.10
2011,05,28,02,39,7.10
2011,05,28,02,40,7.10
2011,05,28,02,41,7.10
2011,05,28,02,42,7.10
2011,05,28,02,43,7.10
2011,05,28,02,44,7.10
2011,05,28,02,45,7.10
2011,05,28,02,46,7.10
2011,05,28,02,47,7.10
2011,05,28,02,48,7.10
2011,05,28,02,49,7.10
2011,05,28,02,50,7.10
2011,05,28,02,51,7.10
2011,05,28,02,52,7.00
2011,05,28,02,53,7.00
2011,05,28,02,54,7.00
2011,05,28,02,55,7.00
2011,05,28,02,56,6.90
2011,05,28,02,57,6.90
2011,05,28,02,58,6.90
2011,05,28,02,59,6.90
2011,05,28,03,00,6.80
2011,05,28,03,01,6.80
2011,05,28,03,02,6.80
2011,05,28,03,03,6.80
2011,05,28,03,04,6.80
2011,05,28,03,05,6.80
2011,05,28,03,06,6.70
2011,05,28,03,07,6.70
2011,05,28,03,08,6.70
2011,05,28,03,09,6.70
2011,05,28,03,10,6.70
2011,05,28,03,11,6.60
2011,05,28,03,12,6.60
2011,05,28,03,13,6.60
2011,05,28,03,14,6.60
2011,05,28,03,15,6.60
2011,05,28,03,16,6.60
2011,05,28,03,17,6.50
2011,05,28,03,18,6.50
2011,05,28,03,19,6.50
2011,05,28,03,20,6.50
2011,05,28,03,21,6.50
2011,05,28,03,22,6.50
2011,05,28,03,23,6.50
2011,05,28,03,24,6.50
2011,05,28,03,25,6.50
2011,05,28,03,26,6.40
2011,05,28,03,27,6.40
2011,05,28,03,28,6.40
2011,05,28,03,29,6.30
2011,05,28,03,30,6.30
2011,05,28,03,31,6.30
2011,05,28,03,32,6.30
2011,05,28,03,33,6.30
2011,05,28,03,34,6.30
2011,05,28,03,35,6.30
2011,05,28,03,36,6.30
2011,05,28,03,37,6.30
2011,05,28,03,38,6.30
2011,05,28,03,39,6.30
2011,05,28,03,40,6.30
2011,05,28,03,41,6.30
2011,05,28,03,42,6.30
2011,05,28,03,43,6.30
2011,05,28,03,44,6.20
2011,05,28,03,45,6.20
2011,05,28,03,46,6.20
2011,05,28,03,47,6.20
2011,05,28,03,48,6.20
2011,05,28,03,49,6.20
2011,05,28,03,50,6.20
2011,05,28,03,51,6.20
2011,05,28,03,52,6.20
2011,05,28,03,53,6.20
2011,05,28,03,54,6.10
2011,05,28,03,55,6.10
2011,05,28,03,56,6.10
2011,05,28,03,57,6.10
2011,05,28,03,58,6.10
2011,05,28,03,59,6.10
2011,05,28,04,00,6.10
2011,05,28,04,01,6.10
2011,05,28,04,02,6.10
2011,05,28,04,03,6.10
2011,05,28,04,04,6.10
2011,05,28,04,05,6.10
2011,05,28,04,06,6.10
2011,05,28,04,07,6.00
2011,05,28,04,08,6.00
2011,05,28,04,09,6.10
2011,05,28,04,10,6.10
2011,05,28,04,11,6.00
2011,05,28,04,12,6.10
2011,05,28,04,13,6.00
2011,05,28,04,14,6.00
2011,05,28,04,15,6.00
2011,05,28,04,16,6.00
2011,05,28,04,17,6.00
2011,05,28,04,18,6.00
2011,05,28,04,19,6.00
2011,05,28,04,20,6.00
2011,05,28,04,21,6.00
2011,05,28,04,22,6.00
2011,05,28,04,23,6.10
2011,05,28,04,24,6.10
2011,05,28,04,25,6.10
2011,05,28,04,26,6.10
2011,05,28,04,27,6.10
2011,05,28,04,28,6.10
2011,05,28,04,29,6.10
2011,05,28,04,30,6.10
2011,05,28,04,31,6.10
2011,05,28,04,32,6.10
2011,05,28,04,33,6.10
2011,05,28,04,34,6.10
2011,05,28,04,35,6.10
2011,05,28,04,36,6.10
2011,05,28,04,37,6.10
2011,05,28,04,38,6.10
2011,05,28,04,39,6.20
2011,05,28,04,40,6.20
2011,05,28,04,41,6.20
2011,05,28,04,42,6.20
2011,05,28,04,43,6.20
2011,05,28,04,44,6.20
2011,05,28,04,45,6.20
2011,05,28,04,46,6.30
2011,05,28,04,47,6.30
2011,05,28,04,48,6.30
2011,05,28,04,49,6.40
2011,05,28,04,50,6.40
2011,05,28,04,51,6.40
2011,05,28,04,52,6.50
2011,05,28,04,53,6.50
2011,05,28,04,54,6.60
2011,05,28,04,55,6.60
2011,05,28,04,56,6.60
2011,05,28,04,57,6.60
2011,05,28,04,58,6.70
2011,05,28,04,59,6.70
2011,05,28,05,00,6.70
2011,05,28,05,01,6.80
2011,05,28,05,02,6.80
2011,05,28,05,03,6.80
2011,05,28,05,04,6.80
2011,05,28,05,05,6.90
2011,05,28,05,06,6.90
2011,05,28,05,07,6.90
2011,05,28,05,08,7.00
2011,05,28,05,09,7.00
2011,05,28,05,10,7.00
2011,05,28,05,11,7.00
2011,05,28,05,12,7.00
2011,05,28,05,13,7.10
2011,05,28,05,14,7.10
2011,05,28,05,15,7.10
2011,05,28,05,16,7.10
2011,05,28,05,17,7.10
2011,05,28,05,18,7.10
2011,05,28,05,19,7.10
2011,05,28,05,20,7.10
2011,05,28,05,21,7.10
2011,05,28,05,22,7.10
2011,05,28,05,23,7.10
2011,05,28,05,24,7.10
2011,05,28,05,25,7.10
2011,05,28,05,26,7.10
2011,05,28,05,27,7.10
2011,05,28,05,28,7.10
2011,05,28,05,29,7.10
2011,05,28,05,30,7.10
2011,05,28,05,31,7.20
2011,05,28,05,32,7.20
2011,05,28,05,33,7.20
2011,05,28,05,34,7.20
2011,05,28,05,35,7.20
2011,05,28,05,36,7.30
2011,05,28,05,37,7.30
2011,05,28,05,38,7.30
2011,05,28,05,39,7.30
2011,05,28,05,40,7.30
2011,05,28,05,41,7.40
2011,05,28,05,42,7.40
2011,05,28,05,43,7.50
2011,05,28,05,44,7.50
2011,05,28,05,45,7.50
2011,05,28,05,46,7.60
2011,05,28,05,47,7.60
2011,05,28,05,48,7.60
2011,05,28,05,49,7.60
2011,05,28,05,50,7.70
2011,05,28,05,51,7.70
2011,05,28,05,52,7.70
2011,05,28,05,53,7.70
2011,05,28,05,54,7.70
2011,05,28,05,55,7.70
2011,05,28,05,56,7.70
2011,05,28,05,57,7.70
2011,05,28,05,58,7.80
2011,05,28,05,59,7.80
2011,05,28,06,00,7.80
2011,05,28,06,01,7.80
2011,05,28,06,02,7.80
2011,05,28,06,03,7.80
2011,05,28,06,04,7.80
2011,05,28,06,05,7.80
2011,05,28,06,06,7.90
2011,05,28,06,07,7.90
2011,05,28,06,08,7.90
2011,05,28,06,09,7.90
2011,05,28,06,10,8.00
2011,05,28,06,11,8.00
2011,05,28,06,12,8.00
2011,05,28,06,13,8.10
2011,05,28,06,14,8.10
2011,05,28,06,15,8.10
2011,05,28,06,16,8.20
2011,05,28,06,17,8.20
2011,05,28,06,18,8.20
2011,05,28,06,19,8.20
2011,05,28,06,20,8.20
2011,05,28,06,21,8.20
2011,05,28,06,22,8.30
2011,05,28,06,23,8.30
2011,05,28,06,24,8.30
2011,05,28,06,25,8.30
2011,05,28,06,26,8.30
2011,05,28,06,27,8.40
2011,05,28,06,28,8.40
2011,05,28,06,29,8.40
2011,05,28,06,30,8.50
2011,05,28,06,31,8.50
2011,05,28,06,32,8.50
2011,05,28,06,33,8.60
2011,05,28,06,34,8.60
2011,05,28,06,35,8.60
2011,05,28,06,36,8.60
2011,05,28,06,37,8.60
2011,05,28,06,38,8.60
2011,05,28,06,39,8.70
2011,05,28,06,40,8.70
2011,05,28,06,41,8.70
2011,05,28,06,42,8.70
2011,05,28,06,43,8.70
2011,05,28,06,44,8.70
2011,05,28,06,45,8.70
2011,05,28,06,46,8.70
2011,05,28,06,47,8.70
2011,05,28,06,48,8.70
2011,05,28,06,49,8.80
2011,05,28,06,50,8.80
2011,05,28,06,51,8.80
2011,05,28,06,52,8.80
2011,05,28,06,53,8.80
2011,05,28,06,54,8.80
2011,05,28,06,55,8.80
2011,05,28,06,56,8.80
2011,05,28,06,57,8.80
2011,05,28,06,58,8.80
2011,05,28,06,59,8.90
2011,05,28,07,00,8.90
2011,05,28,07,01,8.90
2011,05,28,07,02,8.90
2011,05,28,07,03,8.90
2011,05,28,07,04,8.90
2011,05,28,07,05,8.90
2011,05,28,07,06,8.90
2011,05,28,07,07,8.90
2011,05,28,07,08,8.90
2011,05,28,07,09,8.90
2011,05,28,07,10,8.90
2011,05,28,07,11,9.00
2011,05,28,07,12,9.00
2011,05,28,07,13,9.00
2011,05,28,07,14,9.00
2011,05,28,07,15,9.00
2011,05,28,07,16,9.10
2011,05,28,07,17,9.10
2011,05,28,07,18,9.10
2011,05,28,07,19,9.10
2011,05,28,07,20,9.10
2011,05,28,07,21,9.10
2011,05,28,07,22,9.10
2011,05,28,07,23,9.10
2011,05,28,07,24,9.10
2011,05,28,07,25,9.10
2011,05,28,07,26,9.10
2011,05,28,07,27,9.10
2011,05,28,07,28,9.10
2011,05,28,07,29,9.10
2011,05,28,07,30,9.10
2011,05,28,07,31,9.10
2011,05,28,07,32,9.10
2011,05,28,07,33,9.10
2011,05,28,07,34,9.10
2011,05,28,07,35,9.10
2011,05,28,07,36,9.10
2011,05,28,07,37,9.10
2011,05,28,07,38,9.10
2011,05,28,07,39,9.10
2011,05,28,07,40,9.10
2011,05,28,07,41,9.10
2011,05,28,07,42,9.10
2011,05,28,07,43,9.10
2011,05,28,07,44,9.10
2011,05,28,07,45,9.10
2011,05,28,07,46,9.10
2011,05,28,07,47,9.10
2011,05,28,07,48,9.10
2011,05,28,07,49,9.00
2011,05,28,07,50,9.00
2011,05,28,07,51,9.00
2011,05,28,07,52,9.00
2011,05,28,07,53,9.00
2011,05,28,07,54,9.10
2011,05,28,07,55,9.00
2011,05,28,07,56,9.00
2011,05,28,07,57,9.00
2011,05,28,07,58,9.00
2011,05,28,07,59,9.00
2011,05,28,08,00,9.10
2011,05,28,08,01,9.10
2011,05,28,08,02,9.10
2011,05,28,08,03,9.10
2011,05,28,08,04,9.00
2011,05,28,08,05,9.00
2011,05,28,08,06,9.10
2011,05,28,08,07,9.00
2011,05,28,08,08,9.00
2011,05,28,08,09,9.00
2011,05,28,08,10,9.00
2011,05,28,08,11,9.10
2011,05,28,08,12,9.10
2011,05,28,08,13,9.10
2011,05,28,08,14,9.10
2011,05,28,08,15,9.10
2011,05,28,08,16,9.10
2011,05,28,08,17,9.10
2011,05,28,08,18,9.20
2011,05,28,08,19,9.20
2011,05,28,08,20,9.30
2011,05,28,08,21,9.30
2011,05,28,08,22,9.30
2011,05,28,08,23,9.30
2011,05,28,08,24,9.40
2011,05,28,08,25,9.40
2011,05,28,08,26,9.40
2011,05,28,08,27,9.40
2011,05,28,08,28,9.50
2011,05,28,08,29,9.50
2011,05,28,08,30,9.60
2011,05,28,08,31,9.60
2011,05,28,08,32,9.60
2011,05,28,08,33,9.60
2011,05,28,08,34,9.70
2011,05,28,08,35,9.70
2011,05,28,08,36,9.70
2011,05,28,08,37,9.80
2011,05,28,08,38,9.80
2011,05,28,08,39,9.80
2011,05,28,08,40,9.80
2011,05,28,08,41,9.80
2011,05,28,08,42,9.80
2011,05,28,08,43,9.80
2011,05,28,08,44,9.80
2011,05,28,08,45,9.80
2011,05,28,08,46,9.80
2011,05,28,08,47,9.80
2011,05,28,08,48,9.80
2011,05,28,08,49,9.80
2011,05,28,08,50,9.80
2011,05,28,08,51,9.80
2011,05,28,08,52,9.80
2011,05,28,08,53,9.80
2011,05,28,08,54,9.80
2011,05,28,08,55,9.80
2011,05,28,08,56,9.80
2011,05,28,08,57,9.80
2011,05,28,08,58,9.80
2011,05,28,08,59,9.80
2011,05,28,09,00,9.80
2011,05,28,09,01,9.90
2011,05,28,09,02,9.90
2011,05,28,09,03,9.90
2011,05,28,09,04,9.90
2011,05,28,09,05,9.90
2011,05,28,09,06,9.90
2011,05,28,09,07,9.90
2011,05,28,09,08,9.90
2011,05,28,09,09,9.90
2011,05,28,09,10,9.90
2011,05,28,09,11,10.00
2011,05,28,09,12,10.00
2011,05,28,09,13,10.00
2011,05,28,09,14,10.00
2011,05,28,09,15,10.00
2011,05,28,09,16,10.00
2011,05,28,09,17,10.10
2011,05,28,09,18,10.10
2011,05,28,09,19,10.10
2011,05,28,09,20,10.10
2011,05,28,09,21,10.10
2011,05,28,09,22,10.20
2011,05,28,09,23,10.20
2011,05,28,09,24,10.20
2011,05,28,09,25,10.20
2011,05,28,09,26,10.20
2011,05,28,09,27,10.20
2011,05,28,09,28,10.20
2011,05,28,09,29,10.30
2011,05,28,09,30,10.30
2011,05,28,09,31,10.30
2011,05,28,09,32,10.30
2011,05,28,09,33,10.30
2011,05,28,09,34,10.30
2011,05,28,09,35,10.40
2011,05,28,09,36,10.40
2011,05,28,09,37,10.40
2011,05,28,09,38,10.40
2011,05,28,09,39,10.40
2011,05,28,09,40,10.40
2011,05,28,09,41,10.40
2011,05,28,09,42,10.40
2011,05,28,09,43,10.50
2011,05,28,09,44,10.50
2011,05,28,09,45,10.60
2011,05,28,09,46,10.60
2011,05,28,09,47,10.60
2011,05,28,09,48,10.60
2011,05,28,09,49,10.70
2011,05,28,09,50,10.70
2011,05,28,09,51,10.70
2011,05,28,09,52,10.70
2011,05,28,09,53,10.70
2011,05,28,09,54,10.70
2011,05,28,09,55,10.80
2011,05,28,09,56,10.80
2011,05,28,09,57,10.80
2011,05,28,09,58,10.90
2011,05,28,09,59,10.90
2011,05,28,10,00,10.90
2011,05,28,10,01,10.90
2011,05,28,10,02,11.00
2011,05,28,10,03,11.00
2011,05,28,10,04,11.00
2011,05,28,10,05,11.00
2011,05,28,10,06,11.10
2011,05,28,10,07,11.10
2011,05,28,10,08,11.00
2011,05,28,10,09,11.00
2011,05,28,10,10,10.90
2011,05,28,10,11,10.90
2011,05,28,10,12,10.90
2011,05,28,10,13,10.90
2011,05,28,10,14,10.90
2011,05,28,10,15,10.90
2011,05,28,10,16,10.90
2011,05,28,10,17,10.90
2011,05,28,10,18,11.00
2011,05,28,10,19,11.00
2011,05,28,10,20,11.00
2011,05,28,10,21,11.00
2011,05,28,10,22,11.10
2011,05,28,10,23,11.10
2011,05,28,10,24,11.10
2011,05,28,10,25,11.10
2011,05,28,10,26,11.20
2011,05,28,10,27,11.20
2011,05,28,10,28,11.20
2011,05,28,10,29,11.20
2011,05,28,10,30,11.20
2011,05,28,10,31,11.20
2011,05,28,10,32,11.20
2011,05,28,10,33,11.20
2011,05,28,10,34,11.20
2011,05,28,10,35,11.20
2011,05,28,10,36,11.20
2011,05,28,10,37,11.20
2011,05,28,10,38,11.20
2011,05,28,10,39,11.20
2011,05,28,10,40,11.20
2011,05,28,10,41,11.20
2011,05,28,10,42,11.20
2011,05,28,10,43,11.20
2011,05,28,10,44,11.20
2011,05,28,10,45,11.20
2011,05,28,10,46,11.20
2011,05,28,10,47,11.30
2011,05,28,10,48,11.30
2011,05,28,10,49,11.30
2011,05,28,10,50,11.30
2011,05,28,10,51,11.30
2011,05,28,10,52,11.30
2011,05,28,10,53,11.30
2011,05,28,10,54,11.30
2011,05,28,10,55,11.30
2011,05,28,10,56,11.40
2011,05,28,10,57,11.40
2011,05,28,10,58,11.40
2011,05,28,10,59,11.50
2011,05,28,11,00,11.50
2011,05,28,11,01,11.70
2011,05,28,11,02,11.80
2011,05,28,11,03,11.90
2011,05,28,11,04,12.00
2011,05,28,11,05,12.10
2011,05,28,11,06,12.10
2011,05,28,11,07,12.10
2011,05,28,11,08,12.10
2011,05,28,11,09,12.10
2011,05,28,11,10,12.10
2011,05,28,11,11,12.00
2011,05,28,11,12,12.00
2011,05,28,11,13,12.00
2011,05,28,11,14,12.00
2011,05,28,11,15,12.00
2011,05,28,11,16,12.00
2011,05,28,11,17,12.00
2011,05,28,11,18,12.00
2011,05,28,11,19,12.00
2011,05,28,11,20,12.00
2011,05,28,11,21,12.00
2011,05,28,11,22,12.00
2011,05,28,11,23,12.10
2011,05,28,11,24,12.10
2011,05,28,11,25,12.10
2011,05,28,11,26,12.10
2011,05,28,11,27,12.10
2011,05,28,11,28,12.10
2011,05,28,11,29,12.10
2011,05,28,11,30,12.00
2011,05,28,11,31,12.00
2011,05,28,11,32,12.00
2011,05,28,11,33,12.00
2011,05,28,11,34,12.00
2011,05,28,11,35,12.00
2011,05,28,11,36,11.90
2011,05,28,11,37,11.90
2011,05,28,11,38,11.90
2011,05,28,11,39,12.00
2011,05,28,11,40,12.00
2011,05,28,11,41,12.10
2011,05,28,11,42,12.10
2011,05,28,11,43,12.10
2011,05,28,11,44,12.20
2011,05,28,11,45,12.20
2011,05,28,11,46,12.20
2011,05,28,11,47,12.20
2011,05,28,11,48,12.20
2011,05,28,11,49,12.20
2011,05,28,11,50,12.20
2011,05,28,11,51,12.20
2011,05,28,11,52,12.20
2011,05,28,11,53,12.30
2011,05,28,11,54,12.20
2011,05,28,11,55,12.20
2011,05,28,11,56,12.20
2011,05,28,11,57,12.20
2011,05,28,11,58,12.20
2011,05,28,11,59,12.10
2011,05,28,12,00,12.10
2011,05,28,12,01,12.00
2011,05,28,12,02,12.00
2011,05,28,12,03,11.90
2011,05,28,12,04,11.90
2011,05,28,12,05,11.90
2011,05,28,12,06,11.90
2011,05,28,12,07,11.90
2011,05,28,12,08,11.90
2011,05,28,12,09,11.90
2011,05,28,12,10,11.90
2011,05,28,12,11,11.90
2011,05,28,12,12,11.90
2011,05,28,12,13,12.00
2011,05,28,12,14,12.00
2011,05,28,12,15,12.10
2011,05,28,12,16,12.10
2011,05,28,12,17,12.10
2011,05,28,12,18,12.20
2011,05,28,12,19,12.20
2011,05,28,12,20,12.30
2011,05,28,12,21,12.30
2011,05,28,12,22,12.30
2011,05,28,12,23,12.30
2011,05,28,12,24,12.30
2011,05,28,12,25,12.30
2011,05,28,12,26,12.30
2011,05,28,12,27,12.40
2011,05,28,12,28,12.40
2011,05,28,12,29,12.40
2011,05,28,12,30,12.40
2011,05,28,12,31,12.50
2011,05,28,12,32,12.50
2011,05,28,12,33,12.60
2011,05,28,12,34,12.60
2011,05,28,12,35,12.60
2011,05,28,12,36,12.60
2011,05,28,12,37,12.60
2011,05,28,12,38,12.70
2011,05,28,12,39,12.70
2011,05,28,12,40,12.80
2011,05,28,12,41,12.80
2011,05,28,12,42,12.90
2011,05,28,12,43,13.00
2011,05,28,12,44,13.00
2011,05,28,12,45,13.10
2011,05,28,12,46,13.20
2011,05,28,12,47,13.20
2011,05,28,12,48,13.20
2011,05,28,12,49,13.20
2011,05,28,12,50,13.30
2011,05,28,12,51,13.30
2011,05,28,12,52,13.40
2011,05,28,12,53,13.40
2011,05,28,12,54,13.40
2011,05,28,12,55,13.50
2011,05,28,12,56,13.50
2011,05,28,12,57,13.50
2011,05,28,12,58,13.50
2011,05,28,12,59,13.60
2011,05,28,13,00,13.60
2011,05,28,13,01,13.70
2011,05,28,13,02,13.70
2011,05,28,13,03,13.80
2011,05,28,13,04,13.90
2011,05,28,13,05,13.90
2011,05,28,13,06,13.90
2011,05,28,13,07,14.00
2011,05,28,13,08,14.00
2011,05,28,13,09,14.00
2011,05,28,13,10,14.00
2011,05,28,13,11,14.10
2011,05,28,13,12,14.10
2011,05,28,13,13,14.20
2011,05,28,13,14,14.20
2011,05,28,13,15,14.20
2011,05,28,13,16,14.20
2011,05,28,13,17,14.20
2011,05,28,13,18,14.20
2011,05,28,13,19,14.30
2011,05,28,13,20,14.30
2011,05,28,13,21,14.30
2011,05,28,13,22,14.30
2011,05,28,13,23,14.30
2011,05,28,13,24,14.30
2011,05,28,13,25,14.30
2011,05,28,13,26,14.20
2011,05,28,13,27,14.10
2011,05,28,13,28,14.00
2011,05,28,13,29,14.00
2011,05,28,13,30,14.00
2011,05,28,13,31,13.90
2011,05,28,13,32,13.90
2011,05,28,13,33,13.90
2011,05,28,13,34,14.00
2011,05,28,13,35,14.00
2011,05,28,13,36,14.00
2011,05,28,13,37,14.10
2011,05,28,13,38,14.20
2011,05,28,13,39,14.30
2011,05,28,13,40,14.30
2011,05,28,13,41,14.30
2011,05,28,13,42,14.30
2011,05,28,13,43,14.40
2011,05,28,13,44,14.50
2011,05,28,13,45,14.60
2011,05,28,13,46,14.70
2011,05,28,13,47,14.80
2011,05,28,13,48,15.00
2011,05,28,13,49,15.00
2011,05,28,13,50,15.00
2011,05,28,13,51,15.00
2011,05,28,13,52,15.00
2011,05,28,13,53,15.00
2011,05,28,13,54,15.00
2011,05,28,13,55,15.00
2011,05,28,13,56,15.00
2011,05,28,13,57,15.00
2011,05,28,13,58,15.00
2011,05,28,13,59,15.00
2011,05,28,14,00,15.20
2011,05,28,14,01,15.20
2011,05,28,14,02,15.30
2011,05,28,14,03,15.20
2011,05,28,14,04,15.20
2011,05,28,14,05,15.00
2011,05,28,14,06,15.00
2011,05,28,14,07,14.80
2011,05,28,14,08,14.70
2011,05,28,14,09,14.60
2011,05,28,14,10,14.50
2011,05,28,14,11,14.40
2011,05,28,14,12,14.40
2011,05,28,14,13,14.40
2011,05,28,14,14,14.30
2011,05,28,14,15,14.30
2011,05,28,14,16,14.30
2011,05,28,14,17,14.30
2011,05,28,14,18,14.30
2011,05,28,14,19,14.30
2011,05,28,14,20,14.40
2011,05,28,14,21,14.50
2011,05,28,14,22,14.70
2011,05,28,14,23,14.90
2011,05,28,14,24,15.00
2011,05,28,14,25,15.10
2011,05,28,14,26,15.30
2011,05,28,14,27,15.40
2011,05,28,14,28,15.60
2011,05,28,14,29,15.70
2011,05,28,14,30,15.70
2011,05,28,14,31,15.80
2011,05,28,14,32,15.70
2011,05,28,14,33,15.70
2011,05,28,14,34,15.70
2011,05,28,14,35,15.70
2011,05,28,14,36,15.70
2011,05,28,14,37,15.80
2011,05,28,14,38,15.80
2011,05,28,14,39,15.80
2011,05,28,14,40,15.70
2011,05,28,14,41,15.60
2011,05,28,14,42,15.60
2011,05,28,14,43,15.50
2011,05,28,14,44,15.20
2011,05,28,14,45,15.00
2011,05,28,14,46,15.00
2011,05,28,14,47,15.00
2011,05,28,14,48,15.00
2011,05,28,14,49,15.00
2011,05,28,14,50,15.00
2011,05,28,14,51,14.90
2011,05,28,14,52,14.70
2011,05,28,14,53,14.60
2011,05,28,14,54,14.70
2011,05,28,14,55,14.80
2011,05,28,14,56,14.90
2011,05,28,14,57,15.00
2011,05,28,14,58,15.00
2011,05,28,14,59,15.00
2011,05,28,15,00,15.00
2011,05,28,15,01,14.80
2011,05,28,15,02,14.70
2011,05,28,15,03,14.60
2011,05,28,15,04,14.50
2011,05,28,15,05,14.40
2011,05,28,15,06,14.30
2011,05,28,15,07,14.30
2011,05,28,15,08,14.20
2011,05,28,15,09,14.10
2011,05,28,15,10,14.10
2011,05,28,15,11,14.10
2011,05,28,15,12,14.10
2011,05,28,15,13,14.10
2011,05,28,15,14,14.20
2011,05,28,15,15,14.20
2011,05,28,15,16,14.30
2011,05,28,15,17,14.40
2011,05,28,15,18,14.50
2011,05,28,15,19,14.50
2011,05,28,15,20,14.50
2011,05,28,15,21,14.50
2011,05,28,15,22,14.50
2011,05,28,15,23,14.50
2011,05,28,15,24,14.50
2011,05,28,15,25,14.60
2011,05,28,15,26,14.70
2011,05,28,15,27,14.80
2011,05,28,15,28,14.90
2011,05,28,15,29,15.00
2011,05,28,15,30,15.00
2011,05,28,15,31,15.00
2011,05,28,15,32,15.00
2011,05,28,15,33,15.00
2011,05,28,15,34,15.00
2011,05,28,15,35,15.00
2011,05,28,15,36,15.00
2011,05,28,15,37,15.00
2011,05,28,15,38,15.00
2011,05,28,15,39,15.00
2011,05,28,15,40,15.00
2011,05,28,15,41,15.00
2011,05,28,15,42,15.00
2011,05,28,15,43,15.00
2011,05,28,15,44,15.10
2011,05,28,15,45,15.20
2011,05,28,15,46,15.30
2011,05,28,15,47,15.40
2011,05,28,15,48,15.40
2011,05,28,15,49,15.50
2011,05,28,15,50,15.60
2011,05,28,15,51,15.60
2011,05,28,15,52,15.60
2011,05,28,15,53,15.50
2011,05,28,15,54,15.50
2011,05,28,15,55,15.30
2011,05,28,15,56,15.30
2011,05,28,15,57,15.40
2011,05,28,15,58,15.40
2011,05,28,15,59,15.60
2011,05,28,16,00,15.60
2011,05,28,16,01,15.70
2011,05,28,16,02,15.80
2011,05,28,16,03,15.90
2011,05,28,16,04,16.00
2011,05,28,16,05,16.10
2011,05,28,16,06,16.10
2011,05,28,16,07,16.10
2011,05,28,16,08,16.10
2011,05,28,16,09,16.10
2011,05,28,16,10,16.10
2011,05,28,16,11,16.10
2011,05,28,16,12,16.10
2011,05,28,16,13,16.10
2011,05,28,16,14,16.20
2011,05,28,16,15,16.20
2011,05,28,16,16,16.20
2011,05,28,16,17,16.30
2011,05,28,16,18,16.30
2011,05,28,16,19,16.40
2011,05,28,16,20,16.40
2011,05,28,16,21,16.50
2011,05,28,16,22,16.50
2011,05,28,16,23,16.50
2011,05,28,16,24,16.50
2011,05,28,16,25,16.40
2011,05,28,16,26,16.50
2011,05,28,16,27,16.50
2011,05,28,16,28,16.60
2011,05,28,16,29,16.60
2011,05,28,16,30,16.60
2011,05,28,16,31,16.60
2011,05,28,16,32,16.60
2011,05,28,16,33,16.70
2011,05,28,16,34,16.70
2011,05,28,16,35,16.70
2011,05,28,16,36,16.70
2011,05,28,16,37,16.70
2011,05,28,16,38,16.70
2011,05,28,16,39,16.70
2011,05,28,16,40,16.70
2011,05,28,16,41,16.80
2011,05,28,16,42,16.80
2011,05,28,16,43,16.80
2011,05,28,16,44,16.80
2011,05,28,16,45,16.80
2011,05,28,16,46,16.80
2011,05,28,16,47,16.80
2011,05,28,16,48,16.80
2011,05,28,16,49,16.60
2011,05,28,16,50,16.50
2011,05,28,16,51,16.40
2011,05,28,16,52,16.40
2011,05,28,16,53,16.40
2011,05,28,16,54,16.40
2011,05,28,16,55,16.40
2011,05,28,16,56,16.40
2011,05,28,16,57,16.50
2011,05,28,16,58,16.50
2011,05,28,16,59,16.60
2011,05,28,17,00,16.50
2011,05,28,17,01,16.40
2011,05,28,17,02,16.30
2011,05,28,17,03,16.30
2011,05,28,17,04,16.30
2011,05,28,17,05,16.30
2011,05,28,17,06,16.20
2011,05,28,17,07,16.20
2011,05,28,17,08,16.20
2011,05,28,17,09,16.30
2011,05,28,17,10,16.30
2011,05,28,17,11,16.40
2011,05,28,17,12,16.50
2011,05,28,17,13,16.60
2011,05,28,17,14,16.70
2011,05,28,17,15,16.80
2011,05,28,17,16,16.90
2011,05,28,17,17,17.00
2011,05,28,17,18,17.10
2011,05,28,17,19,17.20
2011,05,28,17,20,17.10
2011,05,28,17,21,16.90
2011,05,28,17,22,16.80
2011,05,28,17,23,16.80
2011,05,28,17,24,16.80
2011,05,28,17,25,16.70
2011,05,28,17,26,16.70
2011,05,28,17,27,16.80
2011,05,28,17,28,16.80
2011,05,28,17,29,16.80
2011,05,28,17,30,16.70
2011,05,28,17,31,16.70
2011,05,28,17,32,16.70
2011,05,28,17,33,16.70
2011,05,28,17,34,16.80
2011,05,28,17,35,16.70
2011,05,28,17,36,16.70
2011,05,28,17,37,16.50
2011,05,28,17,38,16.40
2011,05,28,17,39,16.30
2011,05,28,17,40,16.20
2011,05,28,17,41,16.10
2011,05,28,17,42,16.10
2011,05,28,17,43,16.10